CMP452 MPTO-SKCG

Flight info

Callsign CMP452
Flight time 0h 41m
Altitude 31000
Route REMAL1A REMAL DCT PONPO DCT BOGAL DCT UGSAT UGSAT3A
Aircraft B737/M-SDE2E3FGHIRWXY/LB1

Departure

Time 2026-04-22 00:15
Airport Tocumen International Airport (MPTO)

Arrival

Time 2026-04-22 00:57
Airport Rafael Nuñez International Airport (SKCG)
Time Latitude Longitude Altitude Speed Heading
2026-04-21 23:53 9.06471 -79.38657 50 ft 0 kts 297°
2026-04-22 00:07 9.06470 -79.38656 50 ft 2 kts 297°
2026-04-22 00:07 9.06460 -79.38633 22 ft 4 kts 283°
2026-04-22 00:07 9.06458 -79.38607 50 ft 4 kts 244°
2026-04-22 00:08 9.06467 -79.38596 50 ft 0 kts 210°
2026-04-22 00:10 9.06458 -79.38601 46 ft 4 kts 210°
2026-04-22 00:10 9.06416 -79.38625 49 ft 10 kts 210°
2026-04-22 00:10 9.06343 -79.38661 48 ft 11 kts 177°
2026-04-22 00:10 9.06257 -79.38628 47 ft 14 kts 167°
2026-04-22 00:11 9.06153 -79.38651 47 ft 17 kts 212°
2026-04-22 00:11 9.06042 -79.38721 47 ft 21 kts 208°
2026-04-22 00:11 9.05909 -79.38796 47 ft 23 kts 210°
2026-04-22 00:11 9.05775 -79.38874 47 ft 22 kts 210°
2026-04-22 00:12 9.05644 -79.38949 47 ft 21 kts 210°
2026-04-22 00:12 9.05517 -79.39022 47 ft 21 kts 209°
2026-04-22 00:12 9.05393 -79.39093 48 ft 20 kts 210°
2026-04-22 00:12 9.05272 -79.39163 47 ft 20 kts 210°
2026-04-22 00:13 9.05154 -79.39230 46 ft 19 kts 209°
2026-04-22 00:13 9.05040 -79.39295 44 ft 19 kts 210°
2026-04-22 00:13 9.04930 -79.39359 42 ft 18 kts 210°
2026-04-22 00:13 9.04831 -79.39366 39 ft 15 kts 127°
2026-04-22 00:14 9.04783 -79.39280 41 ft 10 kts 118°
2026-04-22 00:14 9.04802 -79.39239 41 ft 0 kts 27°
2026-04-22 00:14 9.04852 -79.39211 42 ft 33 kts 30°
2026-04-22 00:15 9.05260 -79.38977 46 ft 100 kts 29°
2026-04-22 00:15 9.06033 -79.38541 57 ft 152 kts 30°
2026-04-22 00:15 9.07000 -79.38016 574 ft 157 kts 29°
2026-04-22 00:15 9.07950 -79.37475 1230 ft 158 kts 41°
2026-04-22 00:16 9.08391 -79.36479 1903 ft 164 kts 90°
2026-04-22 00:16 9.08201 -79.35316 2493 ft 169 kts 97°
2026-04-22 00:16 9.07974 -79.34170 3190 ft 171 kts 96°
2026-04-22 00:16 9.07758 -79.32940 3695 ft 187 kts 95°
2026-04-22 00:17 9.07540 -79.31531 3928 ft 216 kts 95°
2026-04-22 00:17 9.07313 -79.29925 4147 ft 245 kts 95°
2026-04-22 00:17 9.07082 -79.28174 4765 ft 255 kts 94°
2026-04-22 00:17 9.07138 -79.26356 5411 ft 262 kts 78°
2026-04-22 00:18 9.07494 -79.24520 6189 ft 268 kts 76°
2026-04-22 00:18 9.07877 -79.22666 7019 ft 271 kts 76°
2026-04-22 00:18 9.08264 -79.20780 7818 ft 277 kts 77°
2026-04-22 00:18 9.08651 -79.18851 8679 ft 280 kts 77°
2026-04-22 00:19 9.09034 -79.16904 9608 ft 284 kts 76°
2026-04-22 00:19 9.09418 -79.14925 10378 ft 292 kts 77°
2026-04-22 00:19 9.09823 -79.12818 10658 ft 319 kts 77°
2026-04-22 00:19 9.10256 -79.10541 11042 ft 338 kts 77°
2026-04-22 00:20 9.10701 -79.08177 11692 ft 345 kts 78°
2026-04-22 00:20 9.11151 -79.05772 12486 ft 349 kts 78°
2026-04-22 00:20 9.11449 -79.04172 13060 ft 350 kts 79°
2026-04-22 00:20 9.11904 -79.01728 13800 ft 357 kts 79°
2026-04-22 00:21 9.12365 -78.99242 14453 ft 361 kts 79°
2026-04-22 00:21 9.12830 -78.96740 15196 ft 364 kts 79°
2026-04-22 00:21 9.13301 -78.94200 15827 ft 371 kts 79°
2026-04-22 00:21 9.13779 -78.91625 16514 ft 374 kts 79°
2026-04-22 00:22 9.14263 -78.89021 17188 ft 379 kts 79°
2026-04-22 00:22 9.14753 -78.86380 17819 ft 384 kts 79°
2026-04-22 00:22 9.15248 -78.83711 18458 ft 388 kts 79°
2026-04-22 00:22 9.15748 -78.81013 19029 ft 391 kts 79°
2026-04-22 00:23 9.16250 -78.78304 19675 ft 392 kts 79°
2026-04-22 00:23 9.16753 -78.75585 20267 ft 395 kts 79°
2026-04-22 00:23 9.17261 -78.72845 20809 ft 398 kts 79°
2026-04-22 00:23 9.17772 -78.70084 21382 ft 400 kts 79°
2026-04-22 00:24 9.18287 -78.67300 21899 ft 404 kts 79°
2026-04-22 00:24 9.18803 -78.64508 22637 ft 400 kts 79°
2026-04-22 00:24 9.19305 -78.61790 23739 ft 386 kts 79°
2026-04-22 00:24 9.19791 -78.59165 24758 ft 373 kts 80°
2026-04-22 00:25 9.20264 -78.56603 25531 ft 371 kts 80°
2026-04-22 00:25 9.20741 -78.54019 26016 ft 377 kts 81°
2026-04-22 00:25 9.21224 -78.51393 26482 ft 382 kts 81°
2026-04-22 00:25 9.21715 -78.48729 26957 ft 387 kts 81°
2026-04-22 00:26 9.22211 -78.46036 27458 ft 391 kts 81°
2026-04-22 00:26 9.22712 -78.43314 27956 ft 396 kts 81°
2026-04-22 00:26 9.23219 -78.40563 28423 ft 400 kts 81°
2026-04-22 00:26 9.23732 -78.37780 28934 ft 404 kts 81°
2026-04-22 00:27 9.24248 -78.34975 29426 ft 407 kts 82°
2026-04-22 00:27 9.24761 -78.32181 29889 ft 412 kts 82°
2026-04-22 00:27 9.25288 -78.29319 30293 ft 416 kts 82°
2026-04-22 00:27 9.25819 -78.26430 30713 ft 418 kts 82°
2026-04-22 00:28 9.26354 -78.23520 30933 ft 424 kts 82°
2026-04-22 00:28 9.27797 -78.17596 30948 ft 445 kts 72°
2026-04-22 00:29 9.30081 -78.11649 30960 ft 461 kts 70°
2026-04-22 00:29 9.32490 -78.05539 30957 ft 473 kts 70°
2026-04-22 00:30 9.34913 -77.99273 30957 ft 482 kts 71°
2026-04-22 00:30 9.37352 -77.92898 30946 ft 489 kts 70°
2026-04-22 00:31 9.39851 -77.86535 30945 ft 494 kts 70°
2026-04-22 00:31 9.42417 -77.80023 30938 ft 496 kts 70°
2026-04-22 00:32 9.44970 -77.73516 30945 ft 498 kts 70°
2026-04-22 00:32 9.47519 -77.66996 30941 ft 498 kts 70°
2026-04-22 00:33 9.50066 -77.60469 30937 ft 498 kts 70°
2026-04-22 00:33 9.52611 -77.53947 30940 ft 499 kts 70°
2026-04-22 00:34 9.55161 -77.47407 30937 ft 499 kts 70°
2026-04-22 00:34 9.57709 -77.40867 30937 ft 499 kts 70°
2026-04-22 00:35 9.60239 -77.34374 30935 ft 499 kts 70°
2026-04-22 00:35 9.62783 -77.27838 30935 ft 498 kts 70°
2026-04-22 00:36 9.65323 -77.21309 30937 ft 498 kts 70°
2026-04-22 00:36 9.67862 -77.14776 30942 ft 498 kts 70°
2026-04-22 00:37 9.70401 -77.08240 30933 ft 499 kts 70°
2026-04-22 00:37 9.72940 -77.01700 30935 ft 499 kts 70°
2026-04-22 00:38 9.75479 -76.95158 30936 ft 499 kts 70°
2026-04-22 00:38 9.78015 -76.88618 30938 ft 499 kts 70°
2026-04-22 00:39 9.80551 -76.82073 30940 ft 499 kts 70°
2026-04-22 00:39 9.83088 -76.75521 30935 ft 499 kts 70°
2026-04-22 00:40 9.85626 -76.68961 30390 ft 502 kts 70°
2026-04-22 00:40 9.86897 -76.65677 29397 ft 499 kts 70°
2026-04-22 00:40 9.88167 -76.62391 28123 ft 501 kts 70°
2026-04-22 00:40 9.89434 -76.59115 27077 ft 497 kts 70°
2026-04-22 00:41 9.90685 -76.55880 26180 ft 490 kts 70°
2026-04-22 00:41 9.91919 -76.52686 25326 ft 483 kts 70°
2026-04-22 00:41 9.93136 -76.49534 24463 ft 477 kts 69°
2026-04-22 00:41 9.94336 -76.46426 23609 ft 470 kts 69°
2026-04-22 00:42 9.95520 -76.43357 22656 ft 464 kts 69°
2026-04-22 00:42 9.96674 -76.40369 22259 ft 444 kts 69°
2026-04-22 00:42 9.97797 -76.37456 21275 ft 443 kts 69°
2026-04-22 00:42 9.98905 -76.34582 20651 ft 432 kts 69°
2026-04-22 00:43 9.99992 -76.31764 19870 ft 427 kts 69°
2026-04-22 00:43 10.01066 -76.28976 19149 ft 421 kts 69°
2026-04-22 00:43 10.02128 -76.26218 18350 ft 418 kts 69°
2026-04-22 00:43 10.03182 -76.23481 17543 ft 414 kts 69°
2026-04-22 00:44 10.04225 -76.20772 16681 ft 411 kts 69°
2026-04-22 00:44 10.05260 -76.18082 15889 ft 407 kts 69°
2026-04-22 00:44 10.06285 -76.15418 15101 ft 404 kts 69°
2026-04-22 00:44 10.07302 -76.12775 14343 ft 401 kts 69°
2026-04-22 00:45 10.08311 -76.10151 13574 ft 398 kts 69°
2026-04-22 00:45 10.09313 -76.07544 12785 ft 394 kts 69°
2026-04-22 00:45 10.10303 -76.04967 12077 ft 389 kts 69°
2026-04-22 00:45 10.11279 -76.02429 11398 ft 384 kts 69°
2026-04-22 00:46 10.12236 -75.99937 11030 ft 371 kts 68°
2026-04-22 00:46 10.13150 -75.97558 10898 ft 353 kts 68°
2026-04-22 00:46 10.14018 -75.95297 10790 ft 336 kts 68°
2026-04-22 00:46 10.14846 -75.93141 10694 ft 320 kts 68°
2026-04-22 00:47 10.15634 -75.91086 10591 ft 306 kts 68°
2026-04-22 00:47 10.16382 -75.89138 10405 ft 296 kts 68°
2026-04-22 00:47 10.17125 -75.87202 10054 ft 292 kts 68°
2026-04-22 00:47 10.17855 -75.85298 9470 ft 289 kts 68°
2026-04-22 00:48 10.18586 -75.83395 8825 ft 289 kts 68°
2026-04-22 00:48 10.19311 -75.81503 8287 ft 285 kts 68°
2026-04-22 00:48 10.20024 -75.79642 7735 ft 282 kts 68°
2026-04-22 00:48 10.20733 -75.77794 7173 ft 280 kts 68°
2026-04-22 00:49 10.21438 -75.75955 6627 ft 278 kts 68°
2026-04-22 00:49 10.22128 -75.74153 6237 ft 270 kts 68°
2026-04-22 00:49 10.22799 -75.72399 5846 ft 263 kts 68°
2026-04-22 00:49 10.23452 -75.70694 5484 ft 256 kts 68°
2026-04-22 00:50 10.24093 -75.69021 5142 ft 254 kts 68°
2026-04-22 00:50 10.24741 -75.67330 4811 ft 260 kts 68°
2026-04-22 00:50 10.25406 -75.65592 4444 ft 268 kts 68°
2026-04-22 00:50 10.26077 -75.63839 4058 ft 263 kts 68°
2026-04-22 00:51 10.26661 -75.62152 3895 ft 246 kts 78°
2026-04-22 00:51 10.26680 -75.60464 3710 ft 233 kts 91°
2026-04-22 00:51 10.26602 -75.58863 3522 ft 221 kts 90°
2026-04-22 00:51 10.26540 -75.57343 3369 ft 214 kts 90°
2026-04-22 00:52 10.26480 -75.55807 3250 ft 220 kts 90°
2026-04-22 00:52 10.26438 -75.54288 3095 ft 210 kts 83°
2026-04-22 00:52 10.26939 -75.52977 2901 ft 196 kts 49°
2026-04-22 00:52 10.27991 -75.52167 2689 ft 188 kts 24°
2026-04-22 00:53 10.29231 -75.51889 2483 ft 180 kts
2026-04-22 00:53 10.30450 -75.51837 2273 ft 171 kts
2026-04-22 00:53 10.31602 -75.51793 2059 ft 162 kts
2026-04-22 00:53 10.32690 -75.51752 1911 ft 148 kts
2026-04-22 00:54 10.33666 -75.51715 1747 ft 136 kts
2026-04-22 00:54 10.34581 -75.51680 1580 ft 128 kts
2026-04-22 00:54 10.35470 -75.51642 1476 ft 132 kts
2026-04-22 00:54 10.36388 -75.51605 1306 ft 132 kts
2026-04-22 00:55 10.37296 -75.51569 1144 ft 130 kts
2026-04-22 00:55 10.38210 -75.51533 1001 ft 132 kts
2026-04-22 00:55 10.40071 -75.51458 680 ft 135 kts
2026-04-22 00:56 10.41012 -75.51420 534 ft 135 kts
2026-04-22 00:56 10.41974 -75.51364 297 ft 141 kts
2026-04-22 00:56 10.42931 -75.51340 87 ft 134 kts
2026-04-22 00:56 10.43819 -75.51308 13 ft 116 kts
2026-04-22 00:57 10.44471 -75.51282 15 ft 61 kts
2026-04-22 00:57 10.44639 -75.51311 15 ft 16 kts 285°
2026-04-22 00:57 10.44633 -75.51391 13 ft 11 kts 261°
2026-04-22 00:57 10.44627 -75.51443 13 ft 6 kts 269°
2026-04-22 00:58 10.44636 -75.51475 15 ft 4 kts 291°
2026-04-22 00:58 10.44640 -75.51498 13 ft 3 kts 272°
2026-04-22 00:58 10.44641 -75.51514 13 ft 2 kts 272°
2026-04-22 00:58 10.44641 -75.51524 13 ft 2 kts 272°
2026-04-22 00:59 10.44642 -75.51549 13 ft 5 kts 272°
2026-04-22 00:59 10.44642 -75.51559 13 ft 0 kts 272°